• In Lithuania
  • List of Countries
  • For 7 days
  • Water Temperature
  • Satellite Maps
  • Weather Map
  • Weather Widgets
  • user-avatar
    Login

    Hourly Weather Dansaj

    Today, 17 January, Wednesday

    Time Temperature Precipitation Wind Pressure Humidity
    00:00 +18°C° 0 mm 0 mps 704 mmHg 65%
    01:00 +17°C° 0 mm 0 mps 704 mmHg 67%
    02:00 +17°C° 0 mm 0 mps 703 mmHg 67%
    03:00 +17°C° 0 mm 0 mps 703 mmHg 68%
    04:00 +16°C° 0 mm 0 mps 703 mmHg 69%
    05:00 +16°C° 0 mm 0 mps 703 mmHg 70%
    06:00 +16°C° 0 mm 0 mps 704 mmHg 70%
    07:00 +16°C° 0 mm 0 mps 704 mmHg 72%
    08:00 +21°C° 0 mm 1 mps 705 mmHg 63%
    09:00 +24°C° 0 mm 1 mps 705 mmHg 54%
    10:00 +27°C° 0 mm 1 mps 706 mmHg 45%
    11:00 +29°C° 0 mm 1 mps 706 mmHg 41%
    12:00 +28°C° 0 mm 0 mps 706 mmHg 37%
    13:00 +30°C° 0 mm 0 mps 706 mmHg 34%
    14:00 +30°C° 0 mm 0 mps 705 mmHg 34%
    15:00 +29°C° 0 mm 0 mps 704 mmHg 35%
    16:00 +29°C° 0 mm 0 mps 703 mmHg 35%
    17:00 +26°C° 0 mm 0 mps 703 mmHg 42%
    18:00 +23°C° 0 mm 0 mps 703 mmHg 49%
    19:00 +21°C° 0 mm 0 mps 702 mmHg 56%
    20:00 +20°C° 0 mm 0 mps 703 mmHg 58%
    21:00 +20°C° 0 mm 0 mps 703 mmHg 59%
    22:00 +19°C° 0 mm 0 mps 703 mmHg 61%
    23:00 +19°C° 0 mm 0 mps 704 mmHg 62%

    Tomorrow, 18 January, Thursday

    Time Temperature Precipitation Wind Pressure Humidity
    00:00 +19°C° 0 mm 0 mps 704 mmHg 63%
    01:00 +18°C° 0 mm 0 mps 704 mmHg 64%
    02:00 +18°C° 0 mm 0 mps 704 mmHg 65%
    03:00 +18°C° 0 mm 0 mps 703 mmHg 66%
    04:00 +18°C° 0 mm 0 mps 703 mmHg 67%
    05:00 +17°C° 0 mm 0 mps 703 mmHg 68%
    06:00 +17°C° 0 mm 0 mps 704 mmHg 69%
    07:00 +17°C° 0 mm 0 mps 704 mmHg 70%
    08:00 +20°C° 0 mm 0 mps 705 mmHg 62%
    09:00 +23°C° 0 mm 0 mps 706 mmHg 53%
    10:00 +28°C° 0 mm 1 mps 707 mmHg 44%
    11:00 +28°C° 0 mm 0 mps 706 mmHg 41%
    12:00 +29°C° 0 mm 0 mps 706 mmHg 37%
    13:00 +31°C° 0 mm 0 mps 706 mmHg 33%
    14:00 +30°C° 0 mm 0 mps 705 mmHg 33%
    15:00 +30°C° 0 mm 0 mps 704 mmHg 34%
    16:00 +29°C° 0 mm 0 mps 703 mmHg 34%
    17:00 +27°C° 0 mm 0 mps 703 mmHg 40%
    18:00 +24°C° 0 mm 0 mps 703 mmHg 47%
    19:00 +22°C° 0 mm 0 mps 703 mmHg 54%
    20:00 +21°C° 0 mm 0 mps 703 mmHg 56%
    21:00 +21°C° 0 mm 0 mps 704 mmHg 58%
    22:00 +20°C° 0 mm 0 mps 704 mmHg 59%
    23:00 +20°C° 0 mm 0 mps 704 mmHg 61%

    Day after tomorrow, 19 January, Friday

    Time Temperature Precipitation Wind Pressure Humidity
    00:00 +19°C° 0 mm 0 mps 704 mmHg 62%
    01:00 +19°C° 0 mm 0 mps 704 mmHg 63%
    02:00 +19°C° 0 mm 0 mps 704 mmHg 64%
    03:00 +18°C° 0 mm 0 mps 704 mmHg 65%
    04:00 +18°C° 0 mm 0 mps 703 mmHg 66%
    05:00 +18°C° 0 mm 0 mps 704 mmHg 67%
    06:00 +19°C° 0 mm 1 mps 704 mmHg 69%
    07:00 +19°C° 0 mm 1 mps 705 mmHg 70%
    08:00 +22°C° 0 mm 1 mps 706 mmHg 62%
    09:00 +25°C° 0 mm 1 mps 707 mmHg 54%
    10:00 +27°C° 0 mm 1 mps 708 mmHg 46%
    11:00 +29°C° 0 mm 1 mps 707 mmHg 42%
    12:00 +30°C° 0 mm 1 mps 707 mmHg 38%
    13:00 +31°C° 0 mm 1 mps 706 mmHg 34%
    14:00 +31°C° 0 mm 1 mps 705 mmHg 34%
    15:00 +31°C° 0 mm 1 mps 705 mmHg 34%
    16:00 +31°C° 0 mm 1 mps 704 mmHg 34%
    17:00 +29°C° 0 mm 1 mps 704 mmHg 41%
    18:00 +26°C° 0 mm 1 mps 704 mmHg 47%
    19:00 +24°C° 0 mm 1 mps 704 mmHg 54%
    20:00 +24°C° 0 mm 1 mps 704 mmHg 55%
    21:00 +23°C° 0 mm 1 mps 705 mmHg 57%
    22:00 +23°C° 0 mm 1 mps 705 mmHg 59%
    23:00 +22°C° 0 mm 1 mps 705 mmHg 60%

    20 January, Saturday

    Time Temperature Precipitation Wind Pressure Humidity
    00:00 +20°C° 0 mm 0 mps 704 mmHg 61%
    01:00 +20°C° 0 mm 0 mps 704 mmHg 62%
    02:00 +21°C° 0 mm 1 mps 704 mmHg 63%
    03:00 +21°C° 0 mm 1 mps 703 mmHg 64%
    04:00 +21°C° 0 mm 1 mps 703 mmHg 65%
    05:00 +21°C° 0 mm 1 mps 704 mmHg 67%
    06:00 +20°C° 0 mm 1 mps 704 mmHg 69%
    07:00 +20°C° 0 mm 1 mps 705 mmHg 70%
    08:00 +22°C° 0 mm 1 mps 705 mmHg 64%
    09:00 +25°C° 0 mm 1 mps 706 mmHg 58%
    10:00 +27°C° 0 mm 1 mps 707 mmHg 52%
    11:00 +29°C° 0 mm 1 mps 706 mmHg 48%
    12:00 +31°C° 0 mm 1 mps 706 mmHg 44%
    13:00 +32°C° 0 mm 1 mps 705 mmHg 40%
    14:00 +31°C° 0 mm 1 mps 704 mmHg 43%
    15:00 +30°C° 0 mm 1 mps 704 mmHg 47%
    16:00 +27°C° 0 mm 0 mps 703 mmHg 50%
    17:00 +26°C° 0 mm 0 mps 703 mmHg 54%
    18:00 +25°C° 0 mm 0 mps 703 mmHg 58%
    19:00 +23°C° 0 mm 0 mps 703 mmHg 63%
    20:00 +23°C° 0 mm 0 mps 704 mmHg 65%
    21:00 +22°C° 0 mm 0 mps 704 mmHg 67%
    22:00 +22°C° 0 mm 0 mps 704 mmHg 69%
    23:00 +21°C° 0 mm 0 mps 704 mmHg 70%

    21 January, Sunday

    Time Temperature Precipitation Wind Pressure Humidity
    00:00 +21°C° 0 mm 0 mps 704 mmHg 71%
    01:00 +21°C° 0 mm 0 mps 703 mmHg 72%
    02:00 +21°C° 0 mm 0 mps 703 mmHg 73%
    03:00 +21°C° 0 mm 0 mps 703 mmHg 74%
    04:00 +20°C° 0 mm 0 mps 702 mmHg 75%
    05:00 +20°C° 0 mm 0 mps 703 mmHg 75%
    06:00 +20°C° 0 mm 0 mps 703 mmHg 76%
    07:00 +22°C° 0 mm 1 mps 704 mmHg 76%
    08:00 +24°C° 0 mm 1 mps 704 mmHg 68%
    09:00 +27°C° 0 mm 1 mps 705 mmHg 59%
    10:00 +30°C° 0 mm 1 mps 706 mmHg 50%
    11:00 +31°C° 0 mm 1 mps 705 mmHg 47%
    12:00 +32°C° 0 mm 1 mps 705 mmHg 44%
    13:00 +33°C° 0 mm 1 mps 704 mmHg 42%
    14:00 +30°C° 0 mm 0 mps 703 mmHg 44%
    15:00 +29°C° 0 mm 0 mps 702 mmHg 47%
    16:00 +28°C° 0 mm 0 mps 702 mmHg 49%
    17:00 +27°C° 0 mm 0 mps 702 mmHg 53%
    18:00 +26°C° 0 mm 0 mps 702 mmHg 57%
    19:00 +24°C° 0 mm 0 mps 702 mmHg 61%
    20:00 +24°C° 0 mm 0 mps 702 mmHg 64%
    21:00 +23°C° 0 mm 0 mps 703 mmHg 66%
    22:00 +24°C° 0 mm 1 mps 703 mmHg 69%
    23:00 +24°C° 0 mm 1 mps 703 mmHg 70%

    22 January, Monday

    Time Temperature Precipitation Wind Pressure Humidity
    00:00 +23°C° 0 mm 1 mps 702 mmHg 72%
    01:00 +23°C° 0 mm 1 mps 702 mmHg 73%
    02:00 +21°C° 0 mm 0 mps 702 mmHg 75%
    03:00 +21°C° 0 mm 0 mps 702 mmHg 76%
    04:00 +20°C° 0 mm 0 mps 702 mmHg 77%
    05:00 +20°C° 0 mm 0 mps 702 mmHg 77%
    06:00 +20°C° 0 mm 0 mps 702 mmHg 78%
    07:00 +20°C° 0 mm 0 mps 703 mmHg 79%
    08:00 +23°C° 0 mm 0 mps 704 mmHg 69%
    09:00 +28°C° 0 mm 1 mps 704 mmHg 59%
    10:00 +30°C° 0 mm 1 mps 705 mmHg 49%
    11:00 +32°C° 0 mm 1 mps 705 mmHg 44%
    12:00 +33°C° 0 mm 1 mps 704 mmHg 39%
    13:00 +35°C° 0 mm 1 mps 704 mmHg 35%
    14:00 +34°C° 0 mm 1 mps 703 mmHg 37%
    15:00 +32°C° 0 mm 1 mps 702 mmHg 40%
    16:00 +29°C° 0 mm 0 mps 701 mmHg 42%
    17:00 +28°C° 0 mm 0 mps 701 mmHg 47%
    18:00 +26°C° 0 mm 0 mps 702 mmHg 51%
    19:00 +26°C° 0 mm 1 mps 702 mmHg 55%
    20:00 +26°C° 0 mm 1 mps 702 mmHg 58%
    21:00 +25°C° 0 mm 1 mps 702 mmHg 61%
    22:00 +25°C° 0 mm 1 mps 703 mmHg 64%
    23:00 +24°C° 0 mm 1 mps 702 mmHg 66%
    Show more